Location: Lavington
(51.2833°N, 1.9833°W)
Time: 23:05:03
(UTC+00:00)

STARLINK-1233 - Pass Details

Date: 01 June 2020
Orbit: 549 x 550 km, 53.0° (Epoch: 14 July)

Event Time Altitude Azimuth Distance (km) Brightness Sun altitude
Rises 22:29:46 0° 283° (WNW) 2,722 7.7 -13.5°
Reaches altitude 10° 22:32:00 10° 284° (WNW) 1,828 6.8 -13.7°
Maximum altitude 22:36:10 77° 12° (NNE) 570 3.7 -13.9°
Drops below altitude 10° 22:40:19 10° 98° (E) 1,825 6.0 -14.1°
Enters shadow 22:41:22 - 99° (E) 2,245 6.4 -14.2°
